Regional Weather Roundup
Issued by NWS

Home | Current Version | Previous Version | Graphics & Text | Print | Product List | Glossary On
Versions: 1 2 3 4 5 6 7 8 9 10 11 12 13 14 15 16 17 18 19 20 21 22 23 24 25 26 27 28 29 30 31 32 33 34 35 36 37 38 39 40 41 42 43 44 45 46 47 48 49 50
000
ASUS45 KBOU 292107
RWRCO

WEATHER ROUNDUP FOR COLORADO
NATIONAL WEATHER SERVICE DENVER/BOULDER CO
300 PM MDT MON SEP 29 2014

NOTE: "FAIR" INDICATES FEW OR NO CLOUDS BELOW 12000 FEET WITH NO
SIGNIFICANT WEATHER AND/OR OBSTRUCTIONS TO VISIBILITY.

COZ001>005-013-030-031-292200-
...NORTHWEST COLORADO...

CITY           SKY/WX    TMP DP  RH WIND       PRES   REMARKS
CRAIG          CLOUDY    57  40  52 NW14      29.98F
HAYDEN         CLOUDY    55  37  50 NW14G20   29.98F
MEEKER         CLOUDY    56  43  61 W13       29.99S
MOUNT WERNER   NOT AVBL
STEAMBOAT SPGS CLOUDY    53  40  60 W5        29.99F
WALDEN         CLOUDY    50  36  57 W15G24    30.01F
$$

COZ006>008-011-292200-
...WEST CENTRAL VALLEYS...

CITY           SKY/WX    TMP DP  RH WIND       PRES   REMARKS
GRAND JUNCTION CLOUDY    57  44  62 W8        29.96F
MONTROSE       CLOUDY    49  41  74 E17       30.03F
EAGLE          LGT RAIN  52  46  82 VRB7      30.02R
RIFLE          LGT RAIN  52  40  63 VRB7      29.98R
DELTA          RAIN      54  46  73 N10       29.98F
NUCLA          TSTM      54  43  66 NW12G24   30.04R
$$

COZ017>023-064>068-292200-
...SOUTHWEST COLORADO...

CITY           SKY/WX    TMP DP  RH WIND       PRES   REMARKS
DURANGO        LGT RAIN  48  45  89 NE9       30.04F
CORTEZ         TSTM      51  43  74 W16G35    30.04R
PAGOSA SPRINGS CLOUDY    40  39  97 NE9G16    30.12F THUNDER
TELLURIDE      CLOUDY   N/A N/A N/A E8G17     30.12F
WOLF CREEK PAS CLOUDY    28  28 100 SW16      30.22F THUNDER WCI  17
$$

COZ009-010-012-014-032>034-037-058>063-292200-
...CENTRAL COLORADO...

CITY           SKY/WX    TMP DP  RH WIND       PRES   REMARKS
ASPEN          LGT RAIN  47  41  80 CALM      30.04F
BUENA VISTA    CLOUDY    49  42  76 W13G18    30.03S
COPPER MTN     SNOW      36  32  87 SW7       30.20F VSB 1/2
BERTHOUD PASS  SNOW      32  30  93 SE25      30.23F VSB<1/4 WCI  19
COTTONWOOD PAS RAIN      45  36  70 W20G28    30.12S
GUNNISON       CLOUDY    45  36  70 S15G21    30.10R
KREMMLING      CLOUDY    50  41  71 SW7       30.04R
LEADVILLE      LGT RAIN  37  36  96 E3        30.12F
MONARCH PASS   HVY SNOW  32  30  93 MISG      30.29F VSB<1/4
SALIDA         CLOUDY    57  42  58 W24G31    30.09R
SUNLIGHT       SNOW      36  34  93 CALM      30.17S VSB 1/2
WILKERSON PASS NOT AVBL
$$

COZ069>075-292200-
...SAN LUIS VALLEY/SANGRE DE CRISTO MOUNTAINS...

CITY           SKY/WX    TMP DP  RH WIND       PRES   REMARKS
ALAMOSA        LGT RAIN  48  42  80 W17G31    30.07R
LA VETA PASS   MOSUNNY   54  32  43 S18G31    30.11F
SAGUACHE       CLOUDY    46  39  76 W26G36    30.08R
$$

COZ035-036-038>040-292200-
...NORTHERN COLORADO FRONT RANGE...

CITY           SKY/WX    TMP DP  RH WIND       PRES   REMARKS
DENVER INTL AP TSTM      63  49  60 N14G28    29.88F
DMNS CITY PARK   N/A     54  53  95 NW6G13    29.91R
AURORA         HAIL      57  52  82 W13G36    29.93S VSB 3/4
FRONT RANGE AP NOT AVBL
ERIE MUNI ARPT TSTM      56  54  92 NW12      29.92R
BOULDER MUN AP CLOUDY    54  54 100 N13       29.90F
CENTENNIAL     TSTM      53  51  93 SW12G22   29.93R
BROOMFIELD     LGT RAIN  55  54  94 NW14      29.92F
FORT COLLINS   CLOUDY    64  46  52 W7        29.91F
LONGMONT       RAIN      58  54  84 W7        29.96R
$$

COZ041-046-047-076>085-087-088-292200-
...PIKES PEAK/PALMER DIVIDE AND SOUTHERN FOOTHILLS...

CITY           SKY/WX    TMP DP  RH WIND       PRES   REMARKS
COLO. SPRINGS  TSTM      56  51  84 S17G29    29.92R
A. F. ACADEMY  MOSUNNY   57  48  72 SE10      29.93R THUNDER
ELLICOTT       NOT AVBL
FALCON         TSTM      61  46  58 SE21G29   29.95R
FORT CARSON    PTSUNNY   64  54  68 N3        29.86F
LIMON          MOSUNNY   72  48  42 SE22      29.84F
MONUMENT HILL  LGT RAIN  61  45  55 S12       29.93S
TRINIDAD       MOSUNNY   79  42  26 S37G48    29.85F
$$

COZ042>045-048>051-090-091-292200-
...NORTHEAST COLORADO...

CITY           SKY/WX    TMP DP  RH WIND       PRES   REMARKS
GREELEY ARPT   PTSUNNY   70  46  43 E9        29.86F
AKRON          PTSUNNY   75  56  51 SE10      29.85F
BURLINGTON     MOSUNNY   82  52  35 S26G37    29.85F
WRAY           MOSUNNY   83  52  34 SE22G31   29.83F
STERLING       SUNNY     77  59  53 SE3       29.84F
HOLYOKE        LGT RAIN  79  55  44 S22G28    29.84F
FORT MORGAN    MOSUNNY   70  54  56 E8        29.86F
$$

COZ086-089-092>099-292200-
...SOUTHEAST COLORADO...

CITY           SKY/WX    TMP DP  RH WIND       PRES   REMARKS
PUEBLO         PTSUNNY   77  53  43 E8        29.76F
LA JUNTA       MOSUNNY   84  45  25 MISG      29.77F
LAMAR          SUNNY     86  54  33 S29G37    29.79F
SPRINGFIELD      N/A     80  54  40 S31G40    29.91F
$$


USA.gov is the U.S. government's official web portal to all federal, state and local government web resources and services.